TimeEST,TemperatureF,Dew PointF,Humidity,Sea Level PressureIn,VisibilityMPH,Wind Direction,Wind SpeedMPH,Gust SpeedMPH,PrecipitationIn,Events,Conditions,WindDirDegrees,DateUTC
12:53 AM,30.0,19.0,64,30.13,10.0,East,4.6,-,N/A,,Clear,90,2012-11-07 05:53:00
1:53 AM,32.0,18.0,56,30.10,10.0,ENE,4.6,-,N/A,,Clear,60,2012-11-07 06:53:00
2:53 AM,32.0,19.9,61,30.06,10.0,NE,9.2,-,N/A,,Clear,50,2012-11-07 07:53:00
3:53 AM,33.1,21.9,64,30.04,10.0,NE,6.9,-,N/A,,Clear,40,2012-11-07 08:53:00
4:53 AM,34.0,24.1,67,30.04,10.0,NE,5.8,-,N/A,,Partly Cloudy,40,2012-11-07 09:53:00
5:53 AM,35.1,25.0,67,30.02,10.0,NNE,8.1,-,N/A,,Mostly Cloudy,30,2012-11-07 10:53:00
6:53 AM,36.0,25.0,64,30.01,10.0,NE,5.8,-,N/A,,Clear,40,2012-11-07 11:53:00
7:53 AM,37.0,26.1,65,30.00,10.0,NE,8.1,17.3,N/A,,Clear,40,2012-11-07 12:53:00
8:53 AM,37.9,27.0,65,29.96,10.0,NE,10.4,26.5,N/A,,Clear,40,2012-11-07 13:53:00
9:53 AM,37.9,27.0,65,29.96,10.0,NE,13.8,28.8,N/A,,Overcast,50,2012-11-07 14:53:00
10:53 AM,37.9,27.0,65,29.94,10.0,NNE,9.2,20.7,N/A,,Overcast,30,2012-11-07 15:53:00
11:53 AM,37.0,27.0,67,29.91,5.0,NE,13.8,19.6,0.00,Snow,Light Snow,40,2012-11-07 16:53:00
11:59 AM,35.6,28.4,75,29.90,1.8,NE,17.3,27.6,0.00,Snow,Light Snow,50,2012-11-07 16:59:00
12:04 PM,35.6,30.2,81,29.90,0.8,NNE,13.8,27.6,0.00,Snow,Light Snow,30,2012-11-07 17:04:00
12:12 PM,33.8,30.2,87,29.90,0.5,NE,6.9,21.9,0.00,Fog-Snow,Snow,40,2012-11-07 17:12:00
12:50 PM,33.8,30.2,87,29.88,0.2,NNE,9.2,18.4,0.02,Fog-Snow,Heavy Snow,30,2012-11-07 17:50:00
12:53 PM,33.1,30.9,92,29.90,0.2,NNE,10.4,18.4,0.02,Fog-Snow,Heavy Snow,20,2012-11-07 17:53:00
1:53 PM,33.1,32.0,96,29.89,0.5,NNE,12.7,21.9,0.04,Fog-Snow,Snow,20,2012-11-07 18:53:00
2:29 PM,33.8,28.4,81,29.87,0.8,NNE,11.5,19.6,0.01,Snow,Light Snow,20,2012-11-07 19:29:00
2:53 PM,33.1,28.9,85,29.88,0.5,North,13.8,21.9,0.01,Fog-Snow,Snow,10,2012-11-07 19:53:00
3:33 PM,33.8,30.2,87,29.87,0.5,North,9.2,-,0.02,Fog-Snow,Snow,360,2012-11-07 20:33:00
3:53 PM,32.0,30.0,92,29.89,0.5,North,15.0,20.7,0.03,Fog-Snow,Snow,10,2012-11-07 20:53:00
4:53 PM,30.9,30.0,96,29.88,0.8,North,12.7,21.9,0.03,Snow,Light Snow,360,2012-11-07 21:53:00
5:39 PM,30.2,28.4,93,29.86,0.8,North,16.1,24.2,0.02,Snow,Light Snow,360,2012-11-07 22:39:00
5:56 PM,30.2,28.4,93,29.86,1.2,North,13.8,19.6,0.00,Snow,Light Snow,360,2012-11-07 22:56:00
6:24 PM,30.2,28.4,93,29.86,1.2,North,11.5,20.7,0.00,Snow,Light Snow,360,2012-11-07 23:24:00
6:53 PM,30.9,28.0,89,29.86,1.2,North,13.8,28.8,0.00,Snow,Light Snow,360,2012-11-07 23:53:00
7:23 PM,30.2,28.4,93,29.84,1.0,North,11.5,24.2,0.00,Snow,Light Snow,360,2012-11-08 00:23:00
7:50 PM,30.2,28.4,93,29.84,1.2,North,15.0,27.6,0.01,Snow,Light Snow,10,2012-11-08 00:50:00
7:53 PM,30.9,28.0,89,29.84,1.2,North,12.7,27.6,0.01,Snow,Light Snow,360,2012-11-08 00:53:00
8:28 PM,30.2,26.6,86,29.83,1.0,North,11.5,24.2,0.00,Snow,Light Snow,10,2012-11-08 01:28:00
8:42 PM,30.2,28.4,93,29.83,0.8,North,15.0,25.3,0.00,Snow,Light Snow,10,2012-11-08 01:42:00
8:53 PM,30.9,28.0,89,29.84,0.8,North,13.8,26.5,0.00,Snow,Light Snow,10,2012-11-08 01:53:00
9:07 PM,30.2,28.4,93,29.83,1.0,North,15.0,21.9,0.00,Snow,Light Snow,10,2012-11-08 02:07:00
9:32 PM,30.2,28.4,93,29.82,1.2,North,13.8,19.6,0.00,Snow,Light Snow,360,2012-11-08 02:32:00
9:51 PM,30.2,28.4,93,29.81,1.2,North,15.0,20.7,0.01,Snow,Light Snow,360,2012-11-08 02:51:00
9:53 PM,30.9,27.0,85,29.82,1.2,North,12.7,20.7,0.01,Snow,Light Snow,350,2012-11-08 02:53:00
10:07 PM,30.2,28.4,93,29.80,1.0,North,11.5,-,0.00,Snow,Light Snow,360,2012-11-08 03:07:00
10:27 PM,30.2,28.4,93,29.79,1.5,North,13.8,20.7,0.00,Snow,Light Snow,350,2012-11-08 03:27:00
10:37 PM,30.2,28.4,93,29.78,1.2,North,13.8,23.0,0.00,Snow,Light Snow,360,2012-11-08 03:37:00
10:53 PM,30.9,28.0,89,29.79,1.2,North,18.4,24.2,0.00,Snow,Light Snow,10,2012-11-08 03:53:00
11:13 PM,30.2,26.6,86,29.78,2.5,North,16.1,24.2,0.00,Snow,Light Snow,360,2012-11-08 04:13:00
11:21 PM,30.2,26.6,86,29.78,2.5,North,11.5,24.2,0.00,Snow,Light Snow,350,2012-11-08 04:21:00
11:53 PM,32.0,28.0,85,29.79,2.5,North,12.7,-,0.00,Snow,Light Snow,350,2012-11-08 04:53:00